Wetterdaten: Donnerstag, 09.06.2016
Datum Zeit Auen-Temp. Temp gefhlt Luftfeuchte Luftdruck Regen Wind Richtung Richtung Sonnenschein Taupunkt Windben
09.06.2016 00:00 12,6 C 12,5 C 85 % 1017,7 hPa 0,0 mm 0,0 km/h (0 Bft) NW 315 0 min 10,1 C 0,0 km/h (0 Bft)
09.06.2016 00:05 12,6 C 12,5 C 85 % 1017,7 hPa 0,0 mm 0,0 km/h (0 Bft) W-SW 247 0 min 10,1 C 0,0 km/h (0 Bft)
09.06.2016 00:10 12,6 C 12,5 C 85 % 1017,6 hPa 0,0 mm 0,0 km/h (0 Bft) S 180 0 min 10,1 C 0,0 km/h (0 Bft)
09.06.2016 00:15 12,5 C 12,5 C 85 % 1017,6 hPa 0,7 mm 0,0 km/h (0 Bft) S-SW 202 0 min 10,0 C 0,0 km/h (0 Bft)
09.06.2016 00:20 12,5 C 12,5 C 85 % 1017,6 hPa 0,0 mm 0,0 km/h (0 Bft) NW 315 0 min 10,0 C 0,0 km/h (0 Bft)
09.06.2016 00:25 12,5 C 12,5 C 85 % 1017,6 hPa 0,7 mm 0,0 km/h (0 Bft) S 180 0 min 10,0 C 0,0 km/h (0 Bft)
09.06.2016 00:30 12,5 C 12,5 C 85 % 1017,6 hPa 0,0 mm 0,0 km/h (0 Bft) SO 135 0 min 10,0 C 0,0 km/h (0 Bft)
09.06.2016 00:35 12,5 C 12,5 C 85 % 1017,6 hPa 0,7 mm 0,0 km/h (0 Bft) W-SW 247 0 min 10,0 C 0,0 km/h (0 Bft)
09.06.2016 00:40 12,5 C 12,5 C 85 % 1017,6 hPa 0,0 mm 0,0 km/h (0 Bft) W 270 0 min 10,0 C 0,0 km/h (0 Bft)
09.06.2016 00:45 12,5 C 12,5 C 85 % 1017,6 hPa 0,0 mm 0,0 km/h (0 Bft) S-SO 157 0 min 10,0 C 0,0 km/h (0 Bft)
09.06.2016 00:50 12,5 C 12,5 C 85 % 1017,5 hPa 0,0 mm 0,0 km/h (0 Bft) W-SW 247 0 min 10,0 C 0,0 km/h (0 Bft)
09.06.2016 00:55 12,5 C 12,4 C 85 % 1017,5 hPa 0,0 mm 0,0 km/h (0 Bft) S 180 0 min 10,0 C 0,0 km/h (0 Bft)
09.06.2016 01:00 12,5 C 12,4 C 85 % 1017,5 hPa 0,0 mm 0,0 km/h (0 Bft) W-SW 247 0 min 10,0 C 0,0 km/h (0 Bft)
09.06.2016 01:05 12,5 C 12,5 C 85 % 1017,5 hPa 0,0 mm 0,0 km/h (0 Bft) S-SW 202 0 min 10,0 C 0,0 km/h (0 Bft)
09.06.2016 01:10 12,5 C 12,5 C 86 % 1017,6 hPa 0,0 mm 1,2 km/h (1 Bft) O 90 0 min 10,2 C 0,0 km/h (0 Bft)
09.06.2016 01:15 12,5 C 12,5 C 86 % 1017,6 hPa 0,0 mm 1,2 km/h (1 Bft) S-SO 157 0 min 10,2 C 0,0 km/h (0 Bft)
09.06.2016 01:20 12,5 C 12,5 C 86 % 1017,6 hPa 0,0 mm 0,9 km/h (0 Bft) W-NW 292 0 min 10,2 C 3,0 km/h (1 Bft)
09.06.2016 01:25 12,5 C 12,5 C 86 % 1017,6 hPa 0,0 mm 1,8 km/h (1 Bft) W 270 0 min 10,2 C 4,8 km/h (1 Bft)
09.06.2016 01:30 12,6 C 12,5 C 86 % 1017,4 hPa 0,0 mm 1,8 km/h (1 Bft) W 270 0 min 10,3 C 9,8 km/h (2 Bft)
09.06.2016 01:35 12,5 C 12,5 C 86 % 1017,4 hPa 0,7 mm 1,5 km/h (1 Bft) NW 315 0 min 10,2 C 0,0 km/h (0 Bft)
09.06.2016 01:40 12,5 C 12,4 C 86 % 1017,4 hPa 0,0 mm 3,9 km/h (1 Bft) W 270 0 min 10,2 C 15,8 km/h (3 Bft)
09.06.2016 01:45 12,5 C 12,4 C 86 % 1017,4 hPa 0,0 mm 3,9 km/h (1 Bft) W-NW 292 0 min 10,2 C 6,0 km/h (2 Bft)
09.06.2016 01:50 12,5 C 12,4 C 86 % 1017,6 hPa 0,7 mm 5,1 km/h (1 Bft) W-NW 292 0 min 10,2 C 16,4 km/h (3 Bft)
09.06.2016 01:55 12,5 C 12,5 C 86 % 1017,6 hPa 0,0 mm 5,1 km/h (1 Bft) N-NO 22 0 min 10,2 C 5,7 km/h (1 Bft)
09.06.2016 02:00 12,5 C 12,4 C 86 % 1017,6 hPa 0,0 mm 3,0 km/h (1 Bft) W 270 0 min 10,2 C 0,0 km/h (0 Bft)
09.06.2016 02:05 12,5 C 12,4 C 86 % 1017,6 hPa 0,7 mm 1,2 km/h (1 Bft) S 180 0 min 10,2 C 0,0 km/h (0 Bft)
09.06.2016 02:10 12,4 C 12,3 C 86 % 1017,2 hPa 2,7 mm 2,1 km/h (1 Bft) S 180 0 min 10,1 C 4,2 km/h (1 Bft)
09.06.2016 02:15 12,5 C 12,3 C 86 % 1017,2 hPa 0,7 mm 3,6 km/h (1 Bft) NO 45 0 min 10,2 C 0,0 km/h (0 Bft)
09.06.2016 02:20 12,4 C 12,2 C 87 % 1017,2 hPa 0,7 mm 2,4 km/h (1 Bft) S-SO 157 0 min 10,3 C 0,0 km/h (0 Bft)
09.06.2016 02:25 12,4 C 12,2 C 87 % 1017,2 hPa 0,0 mm 0,9 km/h (0 Bft) N 360 0 min 10,3 C 0,0 km/h (0 Bft)
09.06.2016 02:27 12,4 C 12,2 C 87 % 1017,2 hPa 0,0 mm 0,9 km/h (0 Bft) N 360 0 min 10,3 C 0,0 km/h (0 Bft)
09.06.2016 02:30 12,4 C 12,2 C 87 % 1017,2 hPa 0,7 mm 1,5 km/h (1 Bft) W-SW 247 0 min 10,3 C 4,8 km/h (1 Bft)
09.06.2016 02:35 12,4 C 12,2 C 87 % 1017,2 hPa 0,0 mm 1,5 km/h (1 Bft) S-SO 157 0 min 10,3 C 0,0 km/h (0 Bft)
09.06.2016 02:40 12,3 C 12,1 C 87 % 1017,2 hPa 0,7 mm 1,8 km/h (1 Bft) W-SW 247 0 min 10,2 C 5,4 km/h (1 Bft)
09.06.2016 02:45 12,3 C 12,1 C 87 % 1017,2 hPa 0,0 mm 3,9 km/h (1 Bft) S-SW 202 0 min 10,2 C 8,3 km/h (2 Bft)
09.06.2016 02:50 12,3 C 12,1 C 87 % 1017,0 hPa 0,0 mm 6,6 km/h (2 Bft) S 180 0 min 10,2 C 10,1 km/h (2 Bft)
09.06.2016 02:55 12,3 C 12,1 C 87 % 1017,0 hPa 0,0 mm 7,2 km/h (2 Bft) SW 225 0 min 10,2 C 7,2 km/h (2 Bft)
09.06.2016 03:00 12,3 C 12,1 C 87 % 1017,0 hPa 0,0 mm 5,7 km/h (1 Bft) S 180 0 min 10,2 C 9,2 km/h (2 Bft)
09.06.2016 03:05 12,3 C 12,1 C 87 % 1017,0 hPa 0,0 mm 6,0 km/h (2 Bft) S-SW 202 0 min 10,2 C 8,9 km/h (2 Bft)
09.06.2016 03:10 12,3 C 12,1 C 87 % 1016,8 hPa 0,0 mm 6,9 km/h (2 Bft) SO 135 0 min 10,2 C 0,0 km/h (0 Bft)
09.06.2016 03:15 12,3 C 12,1 C 87 % 1016,8 hPa 0,0 mm 3,6 km/h (1 Bft) W-SW 247 0 min 10,2 C 0,0 km/h (0 Bft)
09.06.2016 03:20 12,2 C 12,0 C 87 % 1016,8 hPa 0,0 mm 0,0 km/h (0 Bft) SW 225 0 min 10,1 C 0,0 km/h (0 Bft)
09.06.2016 03:25 12,2 C 12,0 C 87 % 1016,8 hPa 0,0 mm 0,9 km/h (0 Bft) SW 225 0 min 10,1 C 6,3 km/h (2 Bft)
09.06.2016 03:30 12,2 C 12,0 C 87 % 1016,6 hPa 0,0 mm 1,5 km/h (1 Bft) W-SW 247 0 min 10,1 C 0,0 km/h (0 Bft)
09.06.2016 03:35 12,2 C 12,0 C 87 % 1016,6 hPa 0,0 mm 0,9 km/h (0 Bft) S-SO 157 0 min 10,1 C 0,0 km/h (0 Bft)
09.06.2016 03:40 12,1 C 12,0 C 87 % 1016,6 hPa 0,0 mm 0,0 km/h (0 Bft) S-SO 157 0 min 10,0 C 0,0 km/h (0 Bft)
09.06.2016 03:45 12,1 C 12,0 C 87 % 1016,6 hPa 0,7 mm 0,0 km/h (0 Bft) S 180 0 min 10,0 C 0,0 km/h (0 Bft)
09.06.2016 03:50 12,1 C 11,9 C 87 % 1016,4 hPa 0,0 mm 0,0 km/h (0 Bft) S 180 0 min 10,0 C 0,0 km/h (0 Bft)
09.06.2016 03:55 12,1 C 11,9 C 87 % 1016,4 hPa 0,0 mm 0,0 km/h (0 Bft) S 180 0 min 10,0 C 0,0 km/h (0 Bft)
09.06.2016 04:00 12,0 C 11,9 C 87 % 1016,4 hPa 0,0 mm 0,0 km/h (0 Bft) SW 225 0 min 9,9 C 0,0 km/h (0 Bft)
09.06.2016 04:05 12,0 C 11,9 C 87 % 1016,4 hPa 0,0 mm 0,0 km/h (0 Bft) S 180 0 min 9,9 C 0,0 km/h (0 Bft)
09.06.2016 04:10 12,0 C 11,9 C 87 % 1016,4 hPa 0,0 mm 0,0 km/h (0 Bft) SW 225 0 min 9,9 C 0,0 km/h (0 Bft)
09.06.2016 04:15 12,0 C 11,9 C 87 % 1016,4 hPa 0,0 mm 0,0 km/h (0 Bft) W-NW 292 0 min 9,9 C 0,0 km/h (0 Bft)
09.06.2016 04:20 12,0 C 11,9 C 87 % 1016,4 hPa 0,0 mm 0,0 km/h (0 Bft) O-NO 67 0 min 9,9 C 0,0 km/h (0 Bft)
09.06.2016 04:25 12,0 C 11,9 C 87 % 1016,4 hPa 0,0 mm 0,0 km/h (0 Bft) O-SO 112 0 min 9,9 C 0,0 km/h (0 Bft)
09.06.2016 04:30 12,0 C 11,8 C 87 % 1016,4 hPa 0,0 mm 0,0 km/h (0 Bft) O-NO 67 0 min 9,9 C 0,0 km/h (0 Bft)
09.06.2016 04:35 12,0 C 11,8 C 87 % 1016,4 hPa 0,0 mm 0,0 km/h (0 Bft) S 180 0 min 9,9 C 0,0 km/h (0 Bft)
09.06.2016 04:40 11,9 C 11,8 C 87 % 1016,4 hPa 0,0 mm 0,0 km/h (0 Bft) SW 225 0 min 9,8 C 0,0 km/h (0 Bft)
09.06.2016 04:45 11,9 C 11,8 C 87 % 1016,4 hPa 0,0 mm 0,0 km/h (0 Bft) W-SW 247 0 min 9,8 C 0,0 km/h (0 Bft)
09.06.2016 04:50 11,8 C 11,7 C 87 % 1016,4 hPa 0,0 mm 0,0 km/h (0 Bft) S-SW 202 0 min 9,7 C 0,0 km/h (0 Bft)
09.06.2016 04:55 11,9 C 11,7 C 87 % 1016,4 hPa 0,0 mm 0,0 km/h (0 Bft) S 180 0 min 9,8 C 0,0 km/h (0 Bft)
09.06.2016 05:00 11,9 C 11,8 C 87 % 1016,4 hPa 0,0 mm 0,0 km/h (0 Bft) W-SW 247 0 min 9,8 C 0,0 km/h (0 Bft)
09.06.2016 05:05 11,9 C 11,8 C 87 % 1016,4 hPa 0,0 mm 0,0 km/h (0 Bft) SW 225 0 min 9,8 C 0,0 km/h (0 Bft)
09.06.2016 05:10 11,9 C 11,9 C 87 % 1016,3 hPa 0,0 mm 0,0 km/h (0 Bft) S-SO 157 0 min 9,8 C 0,0 km/h (0 Bft)
09.06.2016 05:15 12,0 C 11,9 C 87 % 1016,3 hPa 0,0 mm 0,0 km/h (0 Bft) S 180 0 min 9,9 C 0,0 km/h (0 Bft)
09.06.2016 05:20 12,0 C 11,9 C 87 % 1016,3 hPa 0,0 mm 0,0 km/h (0 Bft) S 180 0 min 9,9 C 0,0 km/h (0 Bft)
09.06.2016 05:25 12,0 C 12,0 C 87 % 1016,3 hPa 0,0 mm 0,0 km/h (0 Bft) S-SO 157 0 min 9,9 C 0,0 km/h (0 Bft)
09.06.2016 05:28 12,1 C 12,0 C 87 % 1016,4 hPa 0,0 mm 0,0 km/h (0 Bft) S 180 0 min 10,0 C 0,0 km/h (0 Bft)
09.06.2016 05:30 12,1 C 12,0 C 87 % 1016,4 hPa 0,0 mm 0,0 km/h (0 Bft) S 180 0 min 10,0 C 0,0 km/h (0 Bft)
09.06.2016 05:35 12,1 C 12,0 C 87 % 1016,4 hPa 0,0 mm 0,0 km/h (0 Bft) S-SO 157 0 min 10,0 C 0,0 km/h (0 Bft)
09.06.2016 05:40 12,1 C 12,0 C 87 % 1016,4 hPa 0,0 mm 0,0 km/h (0 Bft) W 270 0 min 10,0 C 0,0 km/h (0 Bft)
09.06.2016 05:45 12,1 C 12,0 C 87 % 1016,4 hPa 0,0 mm 0,0 km/h (0 Bft) S-SW 202 0 min 10,0 C 0,0 km/h (0 Bft)
09.06.2016 05:50 12,1 C 12,1 C 87 % 1016,6 hPa 0,0 mm 0,0 km/h (0 Bft) W-SW 247 0 min 10,0 C 0,0 km/h (0 Bft)
09.06.2016 05:55 12,2 C 12,1 C 87 % 1016,6 hPa 0,0 mm 0,0 km/h (0 Bft) NW 315 0 min 10,1 C 0,0 km/h (0 Bft)
09.06.2016 06:00 12,2 C 12,1 C 87 % 1016,6 hPa 0,0 mm 0,0 km/h (0 Bft) W-SW 247 0 min 10,1 C 0,0 km/h (0 Bft)
09.06.2016 06:05 12,2 C 12,1 C 87 % 1016,6 hPa 0,0 mm 0,0 km/h (0 Bft) SW 225 0 min 10,1 C 0,0 km/h (0 Bft)
09.06.2016 06:10 12,2 C 12,1 C 87 % 1016,6 hPa 0,0 mm 0,0 km/h (0 Bft) W 270 0 min 10,1 C 0,0 km/h (0 Bft)
09.06.2016 06:15 12,2 C 12,1 C 87 % 1016,6 hPa 0,0 mm 0,0 km/h (0 Bft) W 270 0 min 10,1 C 0,0 km/h (0 Bft)
09.06.2016 06:20 12,2 C 12,1 C 87 % 1016,6 hPa 0,0 mm 0,0 km/h (0 Bft) W 270 0 min 10,1 C 0,0 km/h (0 Bft)
09.06.2016 06:25 12,2 C 12,2 C 87 % 1016,6 hPa 0,0 mm 0,0 km/h (0 Bft) W 270 0 min 10,1 C 0,0 km/h (0 Bft)
09.06.2016 06:30 12,2 C 12,1 C 87 % 1016,5 hPa 0,0 mm 0,0 km/h (0 Bft) W 270 0 min 10,1 C 0,0 km/h (0 Bft)
09.06.2016 06:35 12,1 C 12,1 C 87 % 1016,5 hPa 0,0 mm 0,0 km/h (0 Bft) W 270 0 min 10,0 C 0,0 km/h (0 Bft)
09.06.2016 06:40 12,1 C 12,1 C 87 % 1016,5 hPa 0,0 mm 0,0 km/h (0 Bft) W-NW 292 0 min 10,0 C 0,0 km/h (0 Bft)
09.06.2016 06:45 12,1 C 12,0 C 87 % 1016,5 hPa 0,0 mm 0,0 km/h (0 Bft) W 270 0 min 10,0 C 0,0 km/h (0 Bft)
09.06.2016 06:50 12,1 C 12,0 C 87 % 1016,4 hPa 0,0 mm 0,0 km/h (0 Bft) W-SW 247 0 min 10,0 C 0,0 km/h (0 Bft)
09.06.2016 06:55 12,1 C 12,0 C 87 % 1016,4 hPa 0,0 mm 0,6 km/h (0 Bft) W 270 0 min 10,0 C 0,0 km/h (0 Bft)
09.06.2016 07:00 12,1 C 12,0 C 87 % 1016,4 hPa 0,0 mm 0,6 km/h (0 Bft) N-NO 22 0 min 10,0 C 0,0 km/h (0 Bft)
09.06.2016 07:05 12,0 C 12,0 C 87 % 1016,4 hPa 0,0 mm 0,0 km/h (0 Bft) W 270 0 min 9,9 C 0,0 km/h (0 Bft)
09.06.2016 07:10 12,0 C 12,0 C 87 % 1016,6 hPa 0,0 mm 0,0 km/h (0 Bft) N-NO 22 0 min 9,9 C 0,0 km/h (0 Bft)
09.06.2016 07:15 12,0 C 12,0 C 87 % 1016,6 hPa 0,0 mm 0,0 km/h (0 Bft) N 360 0 min 9,9 C 0,0 km/h (0 Bft)
09.06.2016 07:20 12,0 C 12,0 C 87 % 1016,6 hPa 0,0 mm 0,0 km/h (0 Bft) NW 315 0 min 9,9 C 0,0 km/h (0 Bft)
09.06.2016 07:25 12,0 C 12,0 C 87 % 1016,6 hPa 0,0 mm 0,0 km/h (0 Bft) W 270 0 min 9,9 C 0,0 km/h (0 Bft)
09.06.2016 07:30 12,0 C 12,0 C 87 % 1016,4 hPa 0,7 mm 0,0 km/h (0 Bft) W-NW 292 0 min 9,9 C 0,0 km/h (0 Bft)
09.06.2016 07:35 12,0 C 12,0 C 87 % 1016,4 hPa 0,0 mm 0,0 km/h (0 Bft) SW 225 0 min 9,9 C 0,0 km/h (0 Bft)
09.06.2016 07:40 12,0 C 12,0 C 87 % 1016,4 hPa 0,0 mm 0,0 km/h (0 Bft) S 180 0 min 9,9 C 0,0 km/h (0 Bft)
09.06.2016 07:45 12,0 C 12,1 C 87 % 1016,4 hPa 0,0 mm 0,0 km/h (0 Bft) SW 225 0 min 9,9 C 0,0 km/h (0 Bft)
09.06.2016 07:50 12,1 C 12,1 C 88 % 1016,4 hPa 0,0 mm 0,0 km/h (0 Bft) SW 225 0 min 10,2 C 0,0 km/h (0 Bft)
09.06.2016 07:55 12,1 C 12,2 C 88 % 1016,4 hPa 0,0 mm 0,0 km/h (0 Bft) SW 225 0 min 10,2 C 0,0 km/h (0 Bft)
09.06.2016 08:00 12,2 C 12,2 C 88 % 1016,4 hPa 0,0 mm 0,0 km/h (0 Bft) SW 225 0 min 10,3 C 0,0 km/h (0 Bft)
09.06.2016 08:05 12,2 C 12,2 C 88 % 1016,4 hPa 0,7 mm 0,0 km/h (0 Bft) SW 225 0 min 10,3 C 0,0 km/h (0 Bft)
09.06.2016 08:10 12,1 C 12,2 C 88 % 1016,4 hPa 0,0 mm 0,0 km/h (0 Bft) S-SW 202 0 min 10,2 C 0,0 km/h (0 Bft)
09.06.2016 08:15 12,1 C 12,1 C 87 % 1016,4 hPa 0,0 mm 0,0 km/h (0 Bft) S-SO 157 0 min 10,0 C 0,0 km/h (0 Bft)
09.06.2016 08:20 12,0 C 12,1 C 87 % 1016,4 hPa 0,0 mm 0,0 km/h (0 Bft) S-SO 157 0 min 9,9 C 0,0 km/h (0 Bft)
09.06.2016 08:25 12,0 C 12,1 C 87 % 1016,4 hPa 0,0 mm 0,0 km/h (0 Bft) S 180 0 min 9,9 C 0,0 km/h (0 Bft)
09.06.2016 08:28 12,1 C 12,1 C 87 % 1016,3 hPa 0,7 mm 0,0 km/h (0 Bft) S-SO 157 0 min 10,0 C 0,0 km/h (0 Bft)
09.06.2016 08:29 12,1 C 12,1 C 87 % 1016,3 hPa 0,0 mm 0,0 km/h (0 Bft) S-SO 157 0 min 10,0 C 0,0 km/h (0 Bft)
09.06.2016 08:30 12,1 C 12,1 C 87 % 1016,3 hPa 0,0 mm 0,0 km/h (0 Bft) S-SO 157 0 min 10,0 C 0,0 km/h (0 Bft)
09.06.2016 08:35 12,1 C 12,1 C 87 % 1016,3 hPa 0,0 mm 0,0 km/h (0 Bft) NW 315 0 min 10,0 C 0,0 km/h (0 Bft)
09.06.2016 08:40 12,1 C 12,1 C 87 % 1016,3 hPa 0,0 mm 0,0 km/h (0 Bft) N-NW 337 0 min 10,0 C 0,0 km/h (0 Bft)
09.06.2016 08:45 12,1 C 12,1 C 87 % 1016,3 hPa 0,7 mm 0,0 km/h (0 Bft) SW 225 0 min 10,0 C 0,0 km/h (0 Bft)
09.06.2016 08:50 12,1 C 12,2 C 87 % 1016,4 hPa 0,7 mm 0,0 km/h (0 Bft) S 180 0 min 10,0 C 0,0 km/h (0 Bft)
09.06.2016 08:55 12,2 C 12,2 C 87 % 1016,4 hPa 0,7 mm 0,0 km/h (0 Bft) S-SW 202 0 min 10,1 C 0,0 km/h (0 Bft)
09.06.2016 09:00 12,1 C 12,1 C 87 % 1016,4 hPa 0,0 mm 0,0 km/h (0 Bft) SW 225 0 min 10,0 C 0,0 km/h (0 Bft)
09.06.2016 09:05 12,2 C 12,2 C 87 % 1016,4 hPa 0,7 mm 0,0 km/h (0 Bft) S 180 0 min 10,1 C 0,0 km/h (0 Bft)
09.06.2016 09:10 12,2 C 12,2 C 87 % 1016,5 hPa 0,7 mm 0,0 km/h (0 Bft) S 180 0 min 10,1 C 0,0 km/h (0 Bft)
09.06.2016 09:15 12,2 C 12,1 C 87 % 1016,5 hPa 2,1 mm 0,0 km/h (0 Bft) S 180 0 min 10,1 C 0,0 km/h (0 Bft)
09.06.2016 09:20 12,1 C 12,0 C 87 % 1016,5 hPa 1,4 mm 0,3 km/h (0 Bft) S 180 0 min 10,0 C 9,5 km/h (2 Bft)
09.06.2016 09:25 12,1 C 12,0 C 87 % 1016,5 hPa 0,7 mm 1,5 km/h (1 Bft) S-SW 202 0 min 10,0 C 0,0 km/h (0 Bft)
09.06.2016 09:30 12,1 C 12,0 C 87 % 1016,4 hPa 1,4 mm 1,5 km/h (1 Bft) W-SW 247 0 min 10,0 C 0,0 km/h (0 Bft)
09.06.2016 09:35 12,1 C 12,0 C 87 % 1016,4 hPa 0,0 mm 0,0 km/h (0 Bft) SO 135 0 min 10,0 C 0,0 km/h (0 Bft)
09.06.2016 09:40 12,0 C 12,0 C 87 % 1016,4 hPa 1,4 mm 0,0 km/h (0 Bft) S-SO 157 0 min 9,9 C 0,0 km/h (0 Bft)
09.06.2016 09:45 12,0 C 12,0 C 87 % 1016,4 hPa 0,7 mm 0,0 km/h (0 Bft) S-SO 157 0 min 9,9 C 0,0 km/h (0 Bft)
09.06.2016 09:50 12,0 C 12,0 C 87 % 1016,5 hPa 2,1 mm 0,0 km/h (0 Bft) S-SO 157 0 min 9,9 C 0,0 km/h (0 Bft)
09.06.2016 09:55 12,0 C 12,0 C 87 % 1016,5 hPa 0,7 mm 0,0 km/h (0 Bft) NW 315 0 min 9,9 C 0,0 km/h (0 Bft)
09.06.2016 10:00 12,0 C 12,0 C 87 % 1016,5 hPa 0,0 mm 0,0 km/h (0 Bft) NO 45 0 min 9,9 C 0,0 km/h (0 Bft)
09.06.2016 10:05 12,0 C 12,0 C 87 % 1016,5 hPa 0,7 mm 0,3 km/h (0 Bft) S-SO 157 0 min 9,9 C 8,3 km/h (2 Bft)
09.06.2016 10:10 12,1 C 12,2 C 88 % 1016,4 hPa 0,0 mm 1,8 km/h (1 Bft) O-NO 67 0 min 10,2 C 0,0 km/h (0 Bft)
09.06.2016 10:15 12,3 C 12,4 C 88 % 1016,4 hPa 0,0 mm 3,0 km/h (1 Bft) W-NW 292 0 min 10,4 C 4,8 km/h (1 Bft)
09.06.2016 10:20 12,4 C 12,5 C 88 % 1016,4 hPa 0,0 mm 4,2 km/h (1 Bft) W-NW 292 0 min 10,5 C 6,9 km/h (2 Bft)
09.06.2016 10:25 12,5 C 12,6 C 88 % 1016,4 hPa 0,7 mm 6,0 km/h (2 Bft) S 180 0 min 10,6 C 13,4 km/h (3 Bft)
09.06.2016 10:30 12,4 C 12,6 C 88 % 1016,4 hPa 0,0 mm 6,6 km/h (2 Bft) W-NW 292 0 min 10,5 C 7,7 km/h (2 Bft)
09.06.2016 10:35 12,5 C 12,7 C 88 % 1016,4 hPa 0,0 mm 5,4 km/h (1 Bft) W 270 0 min 10,6 C 14,0 km/h (3 Bft)
09.06.2016 10:40 12,5 C 12,7 C 88 % 1016,4 hPa 0,7 mm 4,8 km/h (1 Bft) W 270 0 min 10,6 C 12,2 km/h (2 Bft)
09.06.2016 10:45 12,5 C 12,7 C 88 % 1016,4 hPa 0,0 mm 7,5 km/h (2 Bft) N-NW 337 0 min 10,6 C 5,4 km/h (1 Bft)
09.06.2016 10:50 12,6 C 12,7 C 88 % 1016,5 hPa 0,0 mm 7,2 km/h (2 Bft) W-NW 292 0 min 10,7 C 0,0 km/h (0 Bft)
09.06.2016 10:55 12,6 C 12,7 C 88 % 1016,5 hPa 0,7 mm 4,5 km/h (1 Bft) N-NW 337 0 min 10,7 C 0,0 km/h (0 Bft)
09.06.2016 11:00 12,5 C 12,5 C 88 % 1016,5 hPa 0,0 mm 4,2 km/h (1 Bft) N-NO 22 0 min 10,6 C 20,9 km/h (4 Bft)
09.06.2016 11:05 12,4 C 12,3 C 87 % 1016,5 hPa 0,7 mm 5,7 km/h (1 Bft) NW 315 0 min 10,3 C 0,0 km/h (0 Bft)
09.06.2016 11:10 12,4 C 12,3 C 88 % 1016,7 hPa 0,7 mm 6,0 km/h (2 Bft) O 90 0 min 10,5 C 4,2 km/h (1 Bft)
09.06.2016 11:15 12,4 C 12,3 C 88 % 1016,7 hPa 0,0 mm 3,6 km/h (1 Bft) W-NW 292 0 min 10,5 C 0,0 km/h (0 Bft)
09.06.2016 11:20 12,4 C 12,3 C 87 % 1016,7 hPa 0,7 mm 4,5 km/h (1 Bft) N-NW 337 0 min 10,3 C 0,0 km/h (0 Bft)
09.06.2016 11:25 12,4 C 12,4 C 87 % 1016,7 hPa 0,7 mm 2,7 km/h (1 Bft) NW 315 0 min 10,3 C 0,0 km/h (0 Bft)
09.06.2016 11:28 12,5 C 12,4 C 87 % 1016,8 hPa 0,0 mm 1,2 km/h (1 Bft) S-SO 157 0 min 10,4 C 3,0 km/h (1 Bft)
09.06.2016 11:30 12,5 C 12,4 C 87 % 1016,8 hPa 0,0 mm 1,2 km/h (1 Bft) S-SO 157 0 min 10,4 C 3,0 km/h (1 Bft)
09.06.2016 11:35 12,4 C 12,6 C 87 % 1016,8 hPa 0,7 mm 1,2 km/h (1 Bft) W-NW 292 0 min 10,3 C 0,0 km/h (0 Bft)
09.06.2016 11:40 12,5 C 12,7 C 87 % 1016,8 hPa 0,0 mm 0,6 km/h (0 Bft) NO 45 0 min 10,4 C 0,0 km/h (0 Bft)
09.06.2016 11:45 12,6 C 12,7 C 87 % 1016,8 hPa 0,7 mm 0,0 km/h (0 Bft) W 270 0 min 10,5 C 0,0 km/h (0 Bft)
09.06.2016 11:50 12,6 C 12,8 C 87 % 1016,9 hPa 0,7 mm 0,0 km/h (0 Bft) W 270 0 min 10,5 C 0,0 km/h (0 Bft)
09.06.2016 11:55 12,5 C 12,7 C 87 % 1016,9 hPa 0,0 mm 0,0 km/h (0 Bft) S-SO 157 0 min 10,4 C 0,0 km/h (0 Bft)
09.06.2016 12:00 12,5 C 12,6 C 87 % 1016,9 hPa 0,7 mm 0,0 km/h (0 Bft) S 180 0 min 10,4 C 0,0 km/h (0 Bft)
09.06.2016 12:05 12,5 C 12,6 C 87 % 1016,9 hPa 0,7 mm 0,0 km/h (0 Bft) S 180 0 min 10,4 C 0,0 km/h (0 Bft)
09.06.2016 12:10 12,5 C 12,6 C 87 % 1016,8 hPa 0,0 mm 0,0 km/h (0 Bft) S 180 0 min 10,4 C 0,0 km/h (0 Bft)
09.06.2016 12:15 12,5 C 12,6 C 87 % 1016,8 hPa 0,7 mm 0,6 km/h (0 Bft) W-NW 292 0 min 10,4 C 7,2 km/h (2 Bft)
09.06.2016 12:20 12,5 C 12,4 C 87 % 1016,8 hPa 1,4 mm 3,0 km/h (1 Bft) W 270 0 min 10,4 C 4,2 km/h (1 Bft)
09.06.2016 12:25 12,4 C 12,4 C 87 % 1016,8 hPa 0,7 mm 3,3 km/h (1 Bft) SW 225 0 min 10,3 C 0,0 km/h (0 Bft)
09.06.2016 12:30 12,4 C 12,4 C 87 % 1016,8 hPa 0,7 mm 1,2 km/h (1 Bft) SW 225 0 min 10,3 C 0,0 km/h (0 Bft)
09.06.2016 12:35 12,3 C 12,3 C 87 % 1016,8 hPa 0,0 mm 3,0 km/h (1 Bft) NW 315 0 min 10,2 C 4,8 km/h (1 Bft)
09.06.2016 12:40 12,4 C 12,4 C 87 % 1016,8 hPa 0,7 mm 4,8 km/h (1 Bft) N-NO 22 0 min 10,3 C 11,0 km/h (2 Bft)
09.06.2016 12:45 12,5 C 12,5 C 87 % 1016,8 hPa 0,7 mm 5,7 km/h (1 Bft) N-NW 337 0 min 10,4 C 6,6 km/h (2 Bft)
09.06.2016 12:50 12,6 C 12,7 C 87 % 1017,0 hPa 0,0 mm 8,3 km/h (2 Bft) NW 315 0 min 10,5 C 17,9 km/h (3 Bft)
09.06.2016 12:55 12,5 C 12,7 C 87 % 1017,0 hPa 0,0 mm 8,6 km/h (2 Bft) N-NW 337 0 min 10,4 C 12,5 km/h (3 Bft)
09.06.2016 13:00 12,6 C 12,7 C 87 % 1017,0 hPa 0,0 mm 10,4 km/h (2 Bft) NW 315 0 min 10,5 C 22,7 km/h (4 Bft)
09.06.2016 13:05 12,5 C 12,7 C 87 % 1017,0 hPa 0,0 mm 10,1 km/h (2 Bft) W-NW 292 0 min 10,4 C 10,7 km/h (2 Bft)
09.06.2016 13:10 12,6 C 12,8 C 87 % 1017,2 hPa 0,0 mm 9,5 km/h (2 Bft) N-NW 337 0 min 10,5 C 14,6 km/h (3 Bft)
09.06.2016 13:15 12,5 C 12,7 C 87 % 1017,2 hPa 0,0 mm 9,8 km/h (2 Bft) W 270 0 min 10,4 C 11,3 km/h (2 Bft)
09.06.2016 13:20 12,5 C 12,6 C 87 % 1017,2 hPa 0,7 mm 11,0 km/h (2 Bft) W-NW 292 0 min 10,4 C 24,4 km/h (4 Bft)
09.06.2016 13:25 12,6 C 12,6 C 87 % 1017,2 hPa 0,0 mm 9,5 km/h (2 Bft) NW 315 0 min 10,5 C 8,3 km/h (2 Bft)
09.06.2016 13:30 12,5 C 12,5 C 87 % 1017,3 hPa 0,0 mm 8,0 km/h (2 Bft) W-NW 292 0 min 10,4 C 8,9 km/h (2 Bft)
09.06.2016 13:35 12,5 C 12,5 C 87 % 1017,3 hPa 0,0 mm 6,9 km/h (2 Bft) N-NO 22 0 min 10,4 C 13,7 km/h (3 Bft)
09.06.2016 13:40 12,4 C 12,4 C 87 % 1017,3 hPa 0,7 mm 8,0 km/h (2 Bft) NW 315 0 min 10,3 C 8,0 km/h (2 Bft)
09.06.2016 13:45 12,3 C 12,3 C 87 % 1017,3 hPa 0,0 mm 8,6 km/h (2 Bft) W-NW 292 0 min 10,2 C 5,7 km/h (1 Bft)
09.06.2016 13:50 12,3 C 12,3 C 86 % 1017,4 hPa 0,7 mm 7,5 km/h (2 Bft) N-NW 337 0 min 10,0 C 7,2 km/h (2 Bft)
09.06.2016 13:55 12,4 C 12,4 C 87 % 1017,4 hPa 0,0 mm 5,1 km/h (1 Bft) NW 315 0 min 10,3 C 0,0 km/h (0 Bft)
09.06.2016 14:00 12,6 C 12,7 C 87 % 1017,4 hPa 0,7 mm 0,9 km/h (0 Bft) W 270 0 min 10,5 C 0,0 km/h (0 Bft)
09.06.2016 14:05 12,5 C 12,6 C 87 % 1017,4 hPa 0,0 mm 0,0 km/h (0 Bft) W 270 0 min 10,4 C 0,0 km/h (0 Bft)
09.06.2016 14:10 12,5 C 12,6 C 87 % 1017,3 hPa 0,7 mm 0,6 km/h (0 Bft) NW 315 0 min 10,4 C 0,0 km/h (0 Bft)
09.06.2016 14:15 12,5 C 12,6 C 87 % 1017,3 hPa 0,0 mm 3,3 km/h (1 Bft) W-NW 292 0 min 10,4 C 13,1 km/h (3 Bft)
09.06.2016 14:20 12,4 C 12,4 C 87 % 1017,3 hPa 0,0 mm 7,5 km/h (2 Bft) W 270 0 min 10,3 C 10,7 km/h (2 Bft)
09.06.2016 14:25 12,4 C 12,6 C 87 % 1017,3 hPa 0,0 mm 7,5 km/h (2 Bft) NW 315 0 min 10,3 C 5,4 km/h (1 Bft)
09.06.2016 14:28 12,5 C 12,7 C 87 % 1017,4 hPa 0,0 mm 6,6 km/h (2 Bft) NW 315 0 min 10,4 C 6,6 km/h (2 Bft)
09.06.2016 14:31 12,5 C 12,7 C 87 % 1017,4 hPa 0,0 mm 6,6 km/h (2 Bft) NW 315 0 min 10,4 C 6,6 km/h (2 Bft)
09.06.2016 14:35 12,6 C 12,7 C 87 % 1017,4 hPa 0,0 mm 4,8 km/h (1 Bft) NW 315 0 min 10,5 C 0,0 km/h (0 Bft)
09.06.2016 14:40 12,4 C 12,5 C 87 % 1017,4 hPa 0,0 mm 3,9 km/h (1 Bft) W-SW 247 0 min 10,3 C 14,6 km/h (3 Bft)
09.06.2016 14:45 12,4 C 12,5 C 87 % 1017,4 hPa 0,7 mm 3,9 km/h (1 Bft) W 270 0 min 10,3 C 7,7 km/h (2 Bft)
09.06.2016 14:50 12,6 C 12,8 C 87 % 1017,3 hPa 0,0 mm 2,4 km/h (1 Bft) W 270 0 min 10,5 C 0,0 km/h (0 Bft)
09.06.2016 14:55 12,7 C 12,9 C 87 % 1017,3 hPa 0,0 mm 1,2 km/h (1 Bft) W-SW 247 0 min 10,6 C 0,0 km/h (0 Bft)
09.06.2016 15:00 12,7 C 13,1 C 86 % 1017,3 hPa 0,0 mm 0,6 km/h (0 Bft) NW 315 0 min 10,4 C 0,0 km/h (0 Bft)
09.06.2016 15:05 12,7 C 13,1 C 86 % 1017,3 hPa 0,0 mm 1,5 km/h (1 Bft) W 270 0 min 10,4 C 8,9 km/h (2 Bft)
09.06.2016 15:10 12,7 C 12,9 C 86 % 1017,3 hPa 0,0 mm 3,9 km/h (1 Bft) W 270 0 min 10,4 C 4,5 km/h (1 Bft)
09.06.2016 15:15 12,7 C 12,7 C 86 % 1017,3 hPa 0,0 mm 7,2 km/h (2 Bft) W-SW 247 0 min 10,4 C 14,9 km/h (3 Bft)
09.06.2016 15:20 12,5 C 12,6 C 86 % 1017,3 hPa 0,0 mm 8,3 km/h (2 Bft) W 270 0 min 10,2 C 13,1 km/h (3 Bft)
09.06.2016 15:25 12,6 C 12,6 C 86 % 1017,3 hPa 0,0 mm 8,0 km/h (2 Bft) W-SW 247 0 min 10,3 C 10,7 km/h (2 Bft)
09.06.2016 15:30 12,6 C 12,8 C 86 % 1017,4 hPa 0,0 mm 7,2 km/h (2 Bft) W 270 0 min 10,3 C 8,0 km/h (2 Bft)
09.06.2016 15:35 12,6 C 12,8 C 86 % 1017,4 hPa 0,0 mm 6,0 km/h (2 Bft) W-NW 292 0 min 10,3 C 4,5 km/h (1 Bft)
09.06.2016 15:40 12,7 C 13,0 C 86 % 1017,4 hPa 0,0 mm 4,5 km/h (1 Bft) W-NW 292 0 min 10,4 C 5,4 km/h (1 Bft)
09.06.2016 15:45 12,9 C 13,2 C 86 % 1017,4 hPa 0,0 mm 3,6 km/h (1 Bft) W 270 0 min 10,6 C 0,0 km/h (0 Bft)
09.06.2016 15:50 13,0 C 13,4 C 86 % 1017,2 hPa 0,0 mm 3,9 km/h (1 Bft) W 270 0 min 10,7 C 6,0 km/h (2 Bft)
09.06.2016 15:55 13,1 C 13,5 C 86 % 1017,2 hPa 0,0 mm 3,0 km/h (1 Bft) NW 315 0 min 10,8 C 0,0 km/h (0 Bft)
09.06.2016 16:00 13,3 C 13,8 C 86 % 1017,2 hPa 0,0 mm 0,6 km/h (0 Bft) W-NW 292 0 min 11,0 C 0,0 km/h (0 Bft)
09.06.2016 16:05 13,4 C 14,0 C 86 % 1017,2 hPa 0,0 mm 0,0 km/h (0 Bft) W 270 0 min 11,1 C 0,0 km/h (0 Bft)
09.06.2016 16:10 13,4 C 13,9 C 85 % 1017,2 hPa 0,0 mm 2,1 km/h (1 Bft) W-SW 247 0 min 10,9 C 0,0 km/h (0 Bft)
09.06.2016 16:15 13,4 C 13,9 C 85 % 1017,2 hPa 0,0 mm 2,7 km/h (1 Bft) W-NW 292 0 min 10,9 C 9,2 km/h (2 Bft)
09.06.2016 16:20 13,3 C 13,7 C 85 % 1017,2 hPa 0,0 mm 4,5 km/h (1 Bft) W-NW 292 0 min 10,8 C 12,8 km/h (3 Bft)
09.06.2016 16:25 13,3 C 13,7 C 85 % 1017,2 hPa 0,0 mm 6,6 km/h (2 Bft) W 270 0 min 10,8 C 6,9 km/h (2 Bft)
09.06.2016 16:30 13,5 C 14,0 C 85 % 1017,3 hPa 0,0 mm 3,6 km/h (1 Bft) N 360 0 min 11,0 C 0,0 km/h (0 Bft)
09.06.2016 16:35 13,6 C 14,2 C 85 % 1017,3 hPa 0,0 mm 2,4 km/h (1 Bft) N-NO 22 0 min 11,1 C 7,2 km/h (2 Bft)
09.06.2016 16:40 13,4 C 13,8 C 85 % 1017,3 hPa 0,0 mm 4,8 km/h (1 Bft) NW 315 0 min 10,9 C 14,0 km/h (3 Bft)
09.06.2016 16:45 13,4 C 13,7 C 84 % 1017,3 hPa 0,0 mm 6,3 km/h (2 Bft) NW 315 0 min 10,8 C 0,0 km/h (0 Bft)
09.06.2016 16:50 13,3 C 13,8 C 84 % 1017,4 hPa 0,0 mm 6,3 km/h (2 Bft) W-SW 247 0 min 10,7 C 14,9 km/h (3 Bft)
09.06.2016 16:55 13,3 C 13,8 C 84 % 1017,4 hPa 0,0 mm 6,0 km/h (2 Bft) W 270 0 min 10,7 C 6,3 km/h (2 Bft)
09.06.2016 17:00 13,3 C 13,9 C 84 % 1017,4 hPa 0,0 mm 4,8 km/h (1 Bft) N-NW 337 0 min 10,7 C 8,0 km/h (2 Bft)
09.06.2016 17:05 13,3 C 14,1 C 84 % 1017,4 hPa 0,0 mm 3,0 km/h (1 Bft) NW 315 0 min 10,7 C 8,0 km/h (2 Bft)
09.06.2016 17:10 13,4 C 14,4 C 84 % 1017,1 hPa 0,0 mm 4,2 km/h (1 Bft) N-NO 22 0 min 10,8 C 0,0 km/h (0 Bft)
09.06.2016 17:15 13,4 C 14,6 C 84 % 1017,1 hPa 0,0 mm 3,0 km/h (1 Bft) SW 225 0 min 10,8 C 0,0 km/h (0 Bft)
09.06.2016 17:20 13,6 C 15,0 C 84 % 1017,1 hPa 0,0 mm 2,1 km/h (1 Bft) W-NW 292 0 min 10,9 C 4,5 km/h (1 Bft)
09.06.2016 17:25 13,6 C 15,2 C 84 % 1017,1 hPa 0,0 mm 2,1 km/h (1 Bft) W-NW 292 0 min 10,9 C 0,0 km/h (0 Bft)
09.06.2016 17:30 13,7 C 15,5 C 84 % 1017,0 hPa 0,0 mm 2,7 km/h (1 Bft) W-NW 292 0 min 11,0 C 12,2 km/h (2 Bft)
09.06.2016 17:32 13,7 C 15,5 C 84 % 1017,0 hPa 0,0 mm 2,7 km/h (1 Bft) W-NW 292 0 min 11,0 C 12,2 km/h (2 Bft)
09.06.2016 17:35 13,7 C 15,5 C 84 % 1017,0 hPa 0,0 mm 3,6 km/h (1 Bft) W-SW 247 0 min 11,0 C 3,3 km/h (1 Bft)
09.06.2016 17:40 13,6 C 15,4 C 84 % 1017,0 hPa 0,0 mm 3,3 km/h (1 Bft) W-SW 247 0 min 10,9 C 0,0 km/h (0 Bft)
09.06.2016 17:45 13,6 C 15,2 C 84 % 1017,0 hPa 0,0 mm 1,2 km/h (1 Bft) SW 225 0 min 10,9 C 3,6 km/h (1 Bft)
09.06.2016 17:50 13,5 C 14,8 C 84 % 1017,1 hPa 0,0 mm 0,3 km/h (0 Bft) S-SW 202 0 min 10,8 C 0,0 km/h (0 Bft)
09.06.2016 17:55 13,4 C 14,6 C 84 % 1017,1 hPa 0,0 mm 0,9 km/h (0 Bft) S-SO 157 0 min 10,8 C 0,0 km/h (0 Bft)
09.06.2016 18:00 13,2 C 14,3 C 83 % 1017,1 hPa 0,0 mm 0,6 km/h (0 Bft) S-SO 157 0 min 10,4 C 5,4 km/h (1 Bft)
09.06.2016 18:05 13,2 C 14,2 C 83 % 1017,1 hPa 0,0 mm 0,3 km/h (0 Bft) W-SW 247 0 min 10,4 C 0,0 km/h (0 Bft)
09.06.2016 18:10 13,1 C 14,1 C 83 % 1016,9 hPa 0,0 mm 0,9 km/h (0 Bft) NW 315 0 min 10,3 C 0,0 km/h (0 Bft)
09.06.2016 18:15 13,2 C 14,2 C 83 % 1016,9 hPa 0,0 mm 0,9 km/h (0 Bft) NW 315 0 min 10,4 C 0,0 km/h (0 Bft)
09.06.2016 18:20 13,2 C 14,2 C 83 % 1016,9 hPa 0,0 mm 0,0 km/h (0 Bft) W-NW 292 0 min 10,4 C 0,0 km/h (0 Bft)
09.06.2016 18:25 13,1 C 14,3 C 83 % 1016,9 hPa 0,0 mm 0,6 km/h (0 Bft) S-SW 202 0 min 10,3 C 3,9 km/h (1 Bft)
09.06.2016 18:30 13,1 C 14,2 C 83 % 1016,9 hPa 0,0 mm 0,6 km/h (0 Bft) SW 225 0 min 10,3 C 0,0 km/h (0 Bft)
09.06.2016 18:35 13,1 C 14,2 C 83 % 1016,9 hPa 0,0 mm 1,2 km/h (1 Bft) W-NW 292 0 min 10,3 C 0,0 km/h (0 Bft)
09.06.2016 18:40 13,1 C 14,3 C 83 % 1016,9 hPa 0,0 mm 1,5 km/h (1 Bft) SW 225 0 min 10,3 C 0,0 km/h (0 Bft)
09.06.2016 18:45 13,3 C 14,7 C 83 % 1016,9 hPa 0,0 mm 0,9 km/h (0 Bft) W-SW 247 0 min 10,5 C 6,9 km/h (2 Bft)
09.06.2016 18:50 13,5 C 15,2 C 83 % 1017,0 hPa 0,0 mm 2,1 km/h (1 Bft) W-SW 247 0 min 10,7 C 6,9 km/h (2 Bft)
09.06.2016 18:55 13,6 C 15,2 C 83 % 1017,0 hPa 0,0 mm 4,2 km/h (1 Bft) S-SW 202 0 min 10,8 C 5,7 km/h (1 Bft)
09.06.2016 19:00 13,8 C 15,4 C 82 % 1017,0 hPa 0,0 mm 3,9 km/h (1 Bft) O-SO 112 0 min 10,8 C 0,0 km/h (0 Bft)
09.06.2016 19:05 13,8 C 15,8 C 82 % 1017,0 hPa 0,0 mm 3,0 km/h (1 Bft) S 180 0 min 10,8 C 0,0 km/h (0 Bft)
09.06.2016 19:10 14,0 C 15,9 C 82 % 1016,8 hPa 0,0 mm 1,5 km/h (1 Bft) S 180 0 min 11,0 C 6,6 km/h (2 Bft)
09.06.2016 19:15 13,9 C 15,9 C 82 % 1016,8 hPa 0,0 mm 2,1 km/h (1 Bft) SW 225 0 min 10,9 C 0,0 km/h (0 Bft)
09.06.2016 19:20 14,0 C 16,0 C 81 % 1016,8 hPa 0,0 mm 2,4 km/h (1 Bft) SW 225 0 min 10,8 C 0,0 km/h (0 Bft)
09.06.2016 19:25 14,1 C 16,2 C 81 % 1016,8 hPa 0,0 mm 0,6 km/h (0 Bft) SW 225 0 min 10,9 C 0,0 km/h (0 Bft)
09.06.2016 19:30 14,1 C 16,2 C 81 % 1017,0 hPa 0,0 mm 0,0 km/h (0 Bft) W-SW 247 0 min 10,9 C 0,0 km/h (0 Bft)
09.06.2016 19:35 14,2 C 16,1 C 81 % 1017,0 hPa 0,0 mm 0,0 km/h (0 Bft) SW 225 0 min 11,0 C 0,0 km/h (0 Bft)
09.06.2016 19:40 14,3 C 16,8 C 81 % 1017,0 hPa 0,0 mm 0,0 km/h (0 Bft) W 270 0 min 11,1 C 0,0 km/h (0 Bft)
09.06.2016 19:45 14,2 C 16,5 C 81 % 1017,0 hPa 0,0 mm 0,0 km/h (0 Bft) W 270 0 min 11,0 C 0,0 km/h (0 Bft)
09.06.2016 19:50 14,0 C 16,0 C 81 % 1016,9 hPa 0,0 mm 0,0 km/h (0 Bft) N-NW 337 0 min 10,8 C 0,0 km/h (0 Bft)
09.06.2016 19:55 13,8 C 15,6 C 81 % 1016,9 hPa 0,0 mm 0,0 km/h (0 Bft) W 270 0 min 10,6 C 0,0 km/h (0 Bft)
09.06.2016 20:00 14,0 C 16,0 C 81 % 1016,9 hPa 0,0 mm 0,9 km/h (0 Bft) W-SW 247 0 min 10,8 C 0,0 km/h (0 Bft)
09.06.2016 20:05 13,9 C 16,1 C 81 % 1016,9 hPa 0,0 mm 0,9 km/h (0 Bft) SW 225 0 min 10,7 C 0,0 km/h (0 Bft)
09.06.2016 20:10 13,7 C 15,3 C 81 % 1016,9 hPa 0,0 mm 0,9 km/h (0 Bft) W-NW 292 0 min 10,5 C 0,0 km/h (0 Bft)
09.06.2016 20:15 13,6 C 14,8 C 81 % 1016,9 hPa 0,0 mm 0,6 km/h (0 Bft) S 180 0 min 10,4 C 0,0 km/h (0 Bft)
09.06.2016 20:20 13,4 C 14,5 C 81 % 1016,9 hPa 0,0 mm 0,0 km/h (0 Bft) SW 225 0 min 10,2 C 0,0 km/h (0 Bft)
09.06.2016 20:25 13,0 C 14,5 C 81 % 1016,9 hPa 0,0 mm 0,0 km/h (0 Bft) SW 225 0 min 9,8 C 0,0 km/h (0 Bft)
09.06.2016 20:30 12,7 C 14,5 C 82 % 1016,8 hPa 0,0 mm 0,0 km/h (0 Bft) SW 225 0 min 9,7 C 0,0 km/h (0 Bft)
09.06.2016 20:33 12,5 C 12,6 C 83 % 1016,8 hPa 0,0 mm 0,0 km/h (0 Bft) O-NO 67 0 min 9,7 C 0,0 km/h (0 Bft)
09.06.2016 20:35 12,5 C 12,6 C 83 % 1016,8 hPa 0,0 mm 0,0 km/h (0 Bft) O-NO 67 0 min 9,7 C 0,0 km/h (0 Bft)
09.06.2016 20:40 12,5 C 12,3 C 83 % 1016,8 hPa 0,0 mm 0,0 km/h (0 Bft) NO 45 0 min 9,7 C 0,0 km/h (0 Bft)
09.06.2016 20:45 12,4 C 12,2 C 83 % 1016,8 hPa 0,0 mm 0,0 km/h (0 Bft) W-SW 247 0 min 9,6 C 0,0 km/h (0 Bft)
09.06.2016 20:50 12,3 C 12,2 C 83 % 1016,9 hPa 0,0 mm 0,0 km/h (0 Bft) W 270 0 min 9,5 C 0,0 km/h (0 Bft)
09.06.2016 20:55 12,2 C 12,2 C 84 % 1016,9 hPa 0,0 mm 0,0 km/h (0 Bft) SO 135 0 min 9,6 C 0,0 km/h (0 Bft)
09.06.2016 21:00 12,2 C 12,1 C 84 % 1016,9 hPa 0,0 mm 0,0 km/h (0 Bft) W-SW 247 0 min 9,6 C 0,0 km/h (0 Bft)
09.06.2016 21:05 12,2 C 12,2 C 84 % 1016,9 hPa 0,0 mm 0,0 km/h (0 Bft) SW 225 0 min 9,6 C 0,0 km/h (0 Bft)
09.06.2016 21:10 12,2 C 12,1 C 84 % 1017,2 hPa 0,0 mm 0,6 km/h (0 Bft) S-SO 157 0 min 9,6 C 0,0 km/h (0 Bft)
09.06.2016 21:15 12,1 C 11,9 C 84 % 1017,2 hPa 0,0 mm 1,5 km/h (1 Bft) S-SW 202 0 min 9,5 C 0,0 km/h (0 Bft)
09.06.2016 21:20 12,0 C 11,8 C 84 % 1017,2 hPa 0,0 mm 3,6 km/h (1 Bft) S 180 0 min 9,4 C 14,3 km/h (3 Bft)
09.06.2016 21:25 11,9 C 11,6 C 84 % 1017,2 hPa 0,0 mm 5,7 km/h (1 Bft) NO 45 0 min 9,3 C 9,8 km/h (2 Bft)
09.06.2016 21:30 11,8 C 11,6 C 84 % 1016,9 hPa 0,0 mm 7,7 km/h (2 Bft) S-SW 202 0 min 9,2 C 15,5 km/h (3 Bft)
09.06.2016 21:35 11,8 C 11,5 C 84 % 1016,9 hPa 0,0 mm 8,0 km/h (2 Bft) W-NW 292 0 min 9,2 C 3,9 km/h (1 Bft)
09.06.2016 21:40 11,7 C 11,4 C 84 % 1016,9 hPa 0,0 mm 8,6 km/h (2 Bft) W-SW 247 0 min 9,1 C 9,8 km/h (2 Bft)
09.06.2016 21:45 11,7 C 11,5 C 84 % 1016,9 hPa 0,0 mm 7,7 km/h (2 Bft) SW 225 0 min 9,1 C 6,3 km/h (2 Bft)
09.06.2016 21:50 11,7 C 11,4 C 84 % 1016,9 hPa 0,0 mm 5,1 km/h (1 Bft) W-SW 247 0 min 9,1 C 11,9 km/h (2 Bft)
09.06.2016 21:55 11,6 C 11,4 C 84 % 1016,9 hPa 0,0 mm 4,8 km/h (1 Bft) S 180 0 min 9,0 C 10,7 km/h (2 Bft)
09.06.2016 22:00 11,5 C 11,3 C 85 % 1016,9 hPa 0,0 mm 5,7 km/h (1 Bft) W-SW 247 0 min 9,1 C 6,9 km/h (2 Bft)
09.06.2016 22:05 11,4 C 11,3 C 85 % 1016,9 hPa 0,0 mm 4,2 km/h (1 Bft) NO 45 0 min 9,0 C 0,0 km/h (0 Bft)
09.06.2016 22:10 11,3 C 11,2 C 85 % 1016,9 hPa 0,0 mm 1,2 km/h (1 Bft) O-NO 67 0 min 8,9 C 0,0 km/h (0 Bft)
09.06.2016 22:15 11,3 C 11,1 C 85 % 1016,9 hPa 0,0 mm 0,0 km/h (0 Bft) O-SO 112 0 min 8,9 C 0,0 km/h (0 Bft)
09.06.2016 22:20 11,3 C 11,1 C 85 % 1016,9 hPa 0,0 mm 0,3 km/h (0 Bft) SO 135 0 min 8,9 C 0,0 km/h (0 Bft)
09.06.2016 22:25 11,2 C 11,0 C 85 % 1016,9 hPa 0,0 mm 0,3 km/h (0 Bft) O 90 0 min 8,8 C 0,0 km/h (0 Bft)
09.06.2016 22:30 11,2 C 11,0 C 85 % 1017,1 hPa 0,0 mm 0,0 km/h (0 Bft) W-NW 292 0 min 8,8 C 0,0 km/h (0 Bft)
09.06.2016 22:35 11,1 C 10,9 C 85 % 1017,1 hPa 0,0 mm 0,0 km/h (0 Bft) S-SO 157 0 min 8,7 C 0,0 km/h (0 Bft)
09.06.2016 22:40 11,1 C 10,8 C 85 % 1017,1 hPa 0,0 mm 0,9 km/h (0 Bft) SW 225 0 min 8,7 C 9,2 km/h (2 Bft)
09.06.2016 22:45 11,1 C 10,8 C 85 % 1017,1 hPa 0,0 mm 0,9 km/h (0 Bft) O-SO 112 0 min 8,7 C 0,0 km/h (0 Bft)
09.06.2016 22:50 11,0 C 10,7 C 85 % 1017,1 hPa 0,0 mm 0,6 km/h (0 Bft) O-NO 67 0 min 8,6 C 0,0 km/h (0 Bft)
09.06.2016 22:55 11,0 C 10,7 C 85 % 1017,1 hPa 0,0 mm 0,0 km/h (0 Bft) N-NO 22 0 min 8,6 C 0,0 km/h (0 Bft)
09.06.2016 23:00 10,9 C 10,6 C 86 % 1017,1 hPa 0,0 mm 0,0 km/h (0 Bft) N-NW 337 0 min 8,7 C 0,0 km/h (0 Bft)
09.06.2016 23:05 10,8 C 10,5 C 86 % 1017,1 hPa 0,0 mm 0,0 km/h (0 Bft) NO 45 0 min 8,6 C 0,0 km/h (0 Bft)
09.06.2016 23:10 10,7 C 10,3 C 86 % 1016,8 hPa 0,0 mm 0,0 km/h (0 Bft) S 180 0 min 8,5 C 0,0 km/h (0 Bft)
09.06.2016 23:15 10,6 C 10,2 C 86 % 1016,8 hPa 0,0 mm 0,0 km/h (0 Bft) O-NO 67 0 min 8,4 C 0,0 km/h (0 Bft)
09.06.2016 23:20 10,4 C 10,0 C 86 % 1016,8 hPa 0,0 mm 0,0 km/h (0 Bft) W-SW 247 0 min 8,2 C 0,0 km/h (0 Bft)
09.06.2016 23:25 10,4 C 9,9 C 86 % 1016,8 hPa 0,0 mm 0,0 km/h (0 Bft) SW 225 0 min 8,2 C 0,0 km/h (0 Bft)
09.06.2016 23:30 10,2 C 9,8 C 86 % 1016,8 hPa 0,0 mm 0,0 km/h (0 Bft) NO 45 0 min 8,0 C 0,0 km/h (0 Bft)
09.06.2016 23:33 10,1 C 9,7 C 86 % 1016,8 hPa 0,0 mm 0,0 km/h (0 Bft) O-SO 112 0 min 7,9 C 0,0 km/h (0 Bft)
09.06.2016 23:34 10,1 C 9,7 C 86 % 1016,8 hPa 0,0 mm 0,0 km/h (0 Bft) O-SO 112 0 min 7,9 C 0,0 km/h (0 Bft)
09.06.2016 23:35 10,1 C 9,7 C 86 % 1016,8 hPa 0,0 mm 0,0 km/h (0 Bft) O-SO 112 0 min 7,9 C 0,0 km/h (0 Bft)
09.06.2016 23:40 10,0 C 9,6 C 86 % 1016,8 hPa 0,0 mm 0,0 km/h (0 Bft) SO 135 0 min 7,8 C 0,0 km/h (0 Bft)
09.06.2016 23:45 9,9 C 9,4 C 86 % 1016,8 hPa 0,0 mm 0,0 km/h (0 Bft) W-SW 247 0 min 7,7 C 0,0 km/h (0 Bft)
09.06.2016 23:50 9,8 C 9,4 C 86 % 1016,8 hPa 0,0 mm 0,0 km/h (0 Bft) S-SO 157 0 min 7,6 C 0,0 km/h (0 Bft)
09.06.2016 23:55 9,7 C 9,3 C 86 % 1016,8 hPa 0,0 mm 0,0 km/h (0 Bft) SO 135 0 min 7,5 C 0,0 km/h (0 Bft)
_ Min-Zeit 23:55 23:55 20:25 08:45 - 23:55 - - - 23:55 23:55
Minimum _ 9,7 C 9,3 C 81 % 1016,3 hPa - 0,0 km/h (0 Bft) - - - 7,5 C 0,0 km/h (0 Bft)
_ Max-Zeit 19:40 19:40 11:15 00:05 02:10 13:20 - - 23:55 16:35 13:20
Maximum _ 14,3 C 16,8 C 88 % 1017,7 hPa 2,7 mm 11,0 km/h
W-NW (2 Bft)
- - 0 min 11,1 C 24,4 km/h
W-NW (4 Bft)
Durchschnitt _ 12,4 C 12,6 C 86 % 1016,9 hPa #44,0 mm 2,1 km/h (1 Bft) W-NW - #0 min. 10,1 C 2,8 km/h (1 Bft)